Location: Ferchesar
(52.6477°N, 12.4298°E)
Time: 00:54:00
(UTC+01:00)

Vanguard 2 Rocket - Pass Details

Date: 06 December 2021
Orbit: 554 x 3325 km, 32.9° (Epoch: 21 January)

Event Time Altitude Azimuth Distance (km) Brightness Sun altitude
Rises 23:19:41 0° 252° (WSW) 4,815 - -58.9°
Reaches altitude 10° 23:26:04 10° 222° (SW) 4,515 - -59.2°
Maximum altitude 23:29:36 12° 206° (SSW) 4,727 - -59.3°
Drops below altitude 10° 23:33:35 10° 190° (S) 5,206 - -59.5°
Sets 23:43:13 0° 165° (SSE) 6,878 - -59.7°
